Flag Weather past 2 weeks in Stockton, California, U.S.A.

Now
54 °F

Fog.


Feels Like: 54 °F
Forecast: 43 / 65 °F
Wind: No wind

Location: Stockton Metropolitan Airport

Current Time: Nov 27, 2014 at 7:30:47 PM

Latest Report: Nov 27, 2014 at 6:55 PM


Visibility: 3 mi

Pressure: 30.05 "Hg

Humidity: 86%

Dew point: 50 °F

Location of StocktonLocation

Historic Weather in Stockton — Graph

°F

Stockton temperature yesterday

Maximum temperature yesterday: 68 °F (at 2:55 PM)
Minimum temperature yesterday: 37 °F (at 5:03 AM)
Average temperature yesterday: 52 °F

Past Weeks' High & Low Weather Summary

 TemperatureHumidityPressure
High70 °F (Nov 27, 2:55 PM)100% (Nov 14, 7:55 AM)30.49 "Hg (Nov 14, 7:55 AM)
Low36 °F (Nov 24, 3:55 AM)35% (Nov 16, 2:55 PM)29.95 "Hg (Nov 13, 3:55 AM)
Average53 °F81%30.16 "Hg
* Reported Nov 12 5:55 PM — Nov 27 5:55 PM, Stockton, Weather by CustomWeather, © 2014

Note: Actual official high and low records may vary slightly from our data, if they occured in-between our weather recording intervals... More about our weather records

Advertising

Stockton weather history for previous 24 hours

 ConditionsComfort  
Time TempWeatherWind HumidityBarometerVisibility
5:55 PM
Nov 27
57 °FClear.3 mph72%30.05 "Hg4 mi
4:55 PM60 °FClear.5 mph69%30.06 "Hg3 mi
3:55 PM68 °FSunny.3 mph49%30.07 "Hg5 mi
2:55 PM70 °FSunny.No wind46%30.07 "Hg4 mi
1:55 PM69 °FSunny.5 mph47%30.09 "Hg4 mi
12:55 PM68 °FSunny.No wind49%30.11 "Hg4 mi
11:55 AM64 °FSunny.No wind56%30.14 "Hg4 mi
10:55 AM60 °FSunny.3 mph67%30.18 "Hg4 mi
9:55 AM56 °FSunny.3 mph75%30.19 "Hg3 mi
8:55 AM51 °FFog.3 mph86%30.19 "Hg3 mi
8:02 AM45 °FFog.3 mph93%30.20 "Hg2 mi
7:55 AM44 °FFog.No wind93%30.19 "Hg3 mi
6:55 AM42 °FFog.3 mph92%30.18 "Hg3 mi
5:55 AM42 °FFog.6 mph96%30.17 "Hg3 mi
4:55 AM45 °FFog.5 mph93%30.18 "Hg5 mi
3:55 AM45 °FFog.No wind93%30.18 "Hg4 mi
2:55 AM44 °FFog.No wind93%30.19 "Hg4 mi
1:55 AM44 °FFog.No wind96%30.20 "Hg4 mi
12:55 AM45 °FFog.No wind93%30.20 "Hg4 mi
11:55 PM
Nov 26
48 °FFog.No wind89%30.21 "Hg4 mi
10:55 PM48 °FFog.No wind86%30.22 "Hg4 mi
9:55 PM50 °FFog.No wind89%30.22 "Hg4 mi
8:55 PM53 °FClear.No wind80%30.22 "Hg5 mi
7:55 PM54 °FClear.No wind80%30.22 "Hg5 mi
Weather by CustomWeather, © 2014

See weather overviewHow to use our weather pages